Regional Weather Roundup
Issued by NWS

Home | Current Version | Previous Version | Graphics & Text | Print | Product List | Glossary On
Versions: 1 2 3 4 5 6 7 8 9 10 11 12 13 14 15 16 17 18 19 20 21 22 23 24 25 26 27 28 29 30 31 32 33 34 35 36 37 38 39 40 41 42 43 44 45 46 47 48 49 50
000
ASUS43 KLMK 270510
RWRKY
KENTUCKY REGIONAL WEATHER ROUNDUP
NATIONAL WEATHER SERVICE LOUISVILLE KY
100 AM EDT WED AUG 27 2014

NOTE "FAIR" INDICATES FEW OR NO CLOUDS BELOW 12,000 FEET
WITH NO SIGNIFICANT WEATHER AND/OR OBSTRUCTIONS TO VISIBILITY.

KYZ001>023-026-027-061>063-070>075-270600-
WESTERN AND SOUTH CENTRAL KENTUCKY

CITY           SKY/WX    TMP DP  RH WIND       PRES   REMARKS
PADUCAH        CLEAR     76  72  87 CALM      30.06F
HENDERSON      CLEAR    N/A N/A N/A MISG        N/A
OWENSBORO      CLEAR     77  74  90 S3        30.07S
HOPKINSVILLE   CLEAR     74  74 100 S2        30.09S
BOWLING GREEN  CLEAR     75  72  90 E3        30.09R
GLASGOW        CLEAR     72  71  98 CALM      30.10S
$$

KYZ024-025-028>034-038-045-046-053-270600-
NORTH CENTRAL KENTUCKY

CITY           SKY/WX    TMP DP  RH WIND       PRES   REMARKS
LOUISVILLE/SDF CLEAR     80  71  74 E5        30.08R
LOUISVILLE/LOU CLEAR     80  70  71 CALM      30.08S
FORT KNOX      CLEAR     73  73 100 CALM      30.08S
$$

KYZ035>037-039>044-047>052-055>060-089>105-270600-
NORTHEAST KENTUCKY

CITY           SKY/WX    TMP DP  RH WIND       PRES   REMARKS
LEXINGTON      CLEAR     75  65  70 SE3       30.11S
COVINGTON      CLEAR     74  68  81 CALM      30.11R
FRANKFORT      CLEAR     73  67  81 CALM      30.10R
$$

KYZ054-064>069-076>088-106>120-270600-
SOUTHEAST KENTUCKY

CITY           SKY/WX    TMP DP  RH WIND       PRES   REMARKS
JACKSON        CLEAR     70  61  73 SE3       30.13F
LONDON         CLEAR     67  62  84 CALM      30.13S
SOMERSET       CLEAR     66  64  94 CALM      30.13R
MIDDLESBORO    CLEAR     65  64  96 CALM      30.14S
MONTICELLO     PTCLDY    65  64  96 W5        30.13S
$$



USA.gov is the U.S. government's official web portal to all federal, state and local government web resources and services.